Location: Observatoire
(46.1952°N, 5.3391°E)
Time: 06:48:23
(UTC+01:00)

Tiros 1 despin weight - Pass Details

Date: 23 February 2026
Orbit: 556 x 593 km, 48.2° (Epoch: 13 March)

Event Time Altitude Azimuth Distance (km) Brightness Sun altitude
Rises 20:00:37 0° 282° (WNW) 2,732 ? -18.8°
Reaches altitude 10° 20:03:30 10° 262° (W) 1,834 ? -19.3°
Maximum altitude 20:06:12 17° 222° (SW) 1,443 ? -19.7°
Drops below altitude 10° 20:08:55 10° 181° (S) 1,831 ? -20.2°
Enters shadow 20:09:33 - 175° (S) 2,006 ? -20.3°
Sets 20:11:47 0° 161° (SSE) 2,726 - -20.7°
